DG0CCO-13 Weather Reports


Display with metric or nautical units.
time (UTC)temp
F
wind
direction
speed
MPH
gust
MPH
rain 1hr
in
rain 24hr
in
rain mn
in
humidity
%
barometer
mb
20260507104617 0 197 1.0 4.0 0.00 0.05 0.00
20260507103523 0 161 2.0 4.0 0.00 0.05 0.00
20260507101520 0 188 1.0 2.0 0.00 0.05 0.00
20260507100645 0 242 1.0 2.0 0.00 0.05 0.00
20260507095519 0 186 2.0 3.0 0.00 0.05 0.00
20260507092523 0 234 2.0 3.0 0.00 0.07 0.00
20260507091618 0 247 2.0 4.0 0.00 0.07 0.00
20260507090523 0 358 2.0 5.0 0.00 0.07 0.00
20260507085518 0 209 2.0 3.0 0.00 0.07 0.00
20260507084522 0 229 2.0 2.0 0.00 0.07 0.00
20260507083516 0 268 1.0 3.0 0.00 0.07 0.00
20260507082622 0 210 1.0 4.0 0.00 0.07 0.00
20260507075522 0 211 1.0 3.0 0.00 0.10 0.00
20260507072517 0 252 2.0 3.0 0.00 0.12 0.00
20260507070517 0 274 2.0 2.0 0.00 0.12 0.00
20260507065523 0 245 2.0 5.0 0.00 0.12 0.00
20260507064517 0 209 1.0 5.0 0.00 0.15 0.00
20260507062517 0 274 1.0 1.0 0.00 0.20 0.00
20260507061623 0 225 1.0 3.0 0.00 0.20 0.00
20260507060517 0 238 1.0 2.0 0.00 0.20 0.00
20260507055643 0 255 1.0 2.0 0.00 0.23 0.00
20260507054618 0 206 1.0 3.0 0.00 0.23 0.00
20260507053522 0 213 0.0 1.0 0.00 0.23 0.00
20260507052516 0 233 1.0 1.0 0.00 0.23 0.00
20260507051622 0 219 1.0 3.0 0.00 0.25 0.00
20260507050617 0 230 0.0 1.0 0.00 0.25 0.00
20260507045622 0 214 0.0 1.0 0.00 0.28 0.00
20260507043520 0 288 1.0 1.0 0.00 0.28 0.00
20260507041519 0 194 0.0 2.0 0.00 0.31 0.00
20260507040624 0 262 1.0 2.0 0.00 0.33 0.00
20260507034522 0 218 1.0 2.0 0.00 0.33 0.00
20260507033517 0 21 1.0 4.0 0.00 0.36 0.00
20260507032621 0 214 1.0 2.0 0.00 0.38 0.00
20260507031627 0 233 1.0 2.0 0.00 0.41 0.00
20260507030521 0 252 1.0 2.0 0.00 0.44 0.00
20260507025616 0 183 1.0 2.0 0.00 0.44 0.00
20260507024622 0 210 1.0 3.0 0.00 0.44 0.00
20260507023527 0 187 1.0 4.0 0.00 0.46 0.00
20260507022619 0 222 1.0 4.0 0.00 0.46 0.00
20260507021624 0 257 1.0 2.0 0.00 0.49 0.00
20260507014616 0 223 1.0 3.0 0.00 0.49 0.00
20260507013523 0 317 1.0 2.0 0.00 0.49 0.00
20260507012616 0 240 1.0 3.0 0.00 0.49 0.00
20260507011522 0 293 2.0 2.0 0.00 0.49 0.00
20260507010517 0 274 1.0 3.0 0.00 0.49 0.00
20260507004627 0 186 1.0 4.0 0.00 0.49 0.00
20260507003630 0 246 1.0 3.0 0.00 0.49 0.00
20260507002530 0 208 1.0 2.0 0.00 0.49 0.00
20260507001619 0 261 1.0 2.0 0.00 0.49 0.00
20260507000525 0 273 1.0 3.0 0.00 0.49 0.00
20260506233518 0 226 1.0 2.0 0.00 0.49 0.00
20260506232529 0 175 1.0 2.0 0.00 0.49 0.00
20260506231518 0 246 2.0 3.0 0.00 0.49 0.00
20260506230523 0 200 1.0 3.0 0.00 0.49 0.00
20260506225517 0 236 1.0 3.0 0.00 0.49 0.00
20260506224641 0 244 0.0 2.0 0.00 0.49 0.00
20260506223524 0 234 1.0 2.0 0.00 0.49 0.00
20260506222617 0 259 0.0 1.0 0.00 0.49 0.00
20260506221522 0 237 1.0 2.0 0.00 0.49 0.00
20260506220517 0 145 0.0 1.0 0.00 0.49 0.00
20260506213523 0 223 1.0 2.0 0.00 0.49 0.49
20260506212517 0 243 1.0 2.0 0.00 0.49 0.49
20260506211623 0 212 1.0 3.0 0.02 0.49 0.49
20260506205622 0 271 0.0 2.0 0.02 0.49 0.49
20260506204525 0 201 1.0 1.0 0.02 0.49 0.49
20260506203518 0 227 1.0 4.0 0.02 0.49 0.49
20260506202523 0 0.0 0.0 0.02 0.49 0.49
20260506200621 0 0.0 0.0 0.00 0.46 0.46
20260506194517 0 0.0 0.0 0.00 0.46 0.46
20260506193521 0 0.0 0.0 0.00 0.46 0.46
20260506191620 0 0.0 0.0 0.00 0.46 0.46
20260506190525 0 0.0 0.0 0.00 0.49 0.46
20260506185532 0 0.0 0.0 0.00 0.49 0.46
20260506184515 0 247 1.0 1.0 0.00 0.49 0.46
20260506183622 0 247 1.0 1.0 0.00 0.49 0.46
20260506182625 0 293 1.0 2.0 0.00 0.49 0.46
20260506181526 0 225 1.0 2.0 0.00 0.49 0.46
20260506180620 0 252 0.0 2.0 0.00 0.49 0.46
20260506175526 0 236 0.0 1.0 0.00 0.49 0.46
20260506174520 0 227 0.0 2.0 0.00 0.49 0.46
20260506173525 0 266 0.0 2.0 0.00 0.49 0.46
20260506172620 0 223 0.0 1.0 0.00 0.49 0.46
20260506171525 0 288 1.0 3.0 0.00 0.49 0.46
20260506164519 0 261 1.0 2.0 0.00 0.49 0.46
20260506163525 0 286 0.0 2.0 0.00 0.49 0.46
20260506161624 0 232 1.0 2.0 0.00 0.49 0.46
20260506160517 0 216 0.0 2.0 0.00 0.49 0.46
20260506155521 0 253 0.0 1.0 0.00 0.49 0.46
20260506153519 0 215 0.0 1.0 0.00 0.49 0.46
20260506151518 0 222 0.0 2.0 0.00 0.49 0.46
20260506150523 0 315 0.0 2.0 0.00 0.49 0.46
20260506145617 0 258 0.0 1.0 0.00 0.49 0.46
20260506143516 0 265 1.0 2.0 0.00 0.49 0.46
20260506142623 0 175 1.0 3.0 0.00 0.49 0.46
20260506141518 0 244 1.0 3.0 0.00 0.49 0.46
20260506140523 0 280 0.0 2.0 0.00 0.49 0.46
20260506135618 0 257 0.0 2.0 0.00 0.49 0.46
20260506134522 0 235 0.0 1.0 0.00 0.49 0.46
20260506133627 0 220 0.0 2.0 0.00 0.49 0.46
20260506132520 0 228 0.0 1.0 0.00 0.49 0.46
20260506131530 0 192 1.0 1.0 0.00 0.49 0.46
20260506130625 0 216 1.0 3.0 0.00 0.49 0.46
20260506125631 0 226 1.0 2.0 0.00 0.49 0.46
20260506124620 0 184 0.0 2.0 0.00 0.49 0.46
20260506123516 0 208 0.0 1.0 0.00 0.49 0.46
20260506121626 0 285 1.0 2.0 0.00 0.49 0.46
20260506120519 0 234 0.0 2.0 0.00 0.49 0.46
20260506115525 0 266 0.0 1.0 0.02 0.49 0.46
20260506111526 0 263 1.0 1.0 0.02 0.49 0.46
20260506105525 0 242 1.0 3.0 0.00 0.46 0.44